2010,08,01,00,05,-0.18,1,-99999,99,-1.21,01,0,99,0,99
2010,08,01,00,10,-0.18,1,-99999,99,-1.1,01,0,99,0,99
2010,08,01,00,15,-0.51,1,-99999,99,-1.45,01,0,99,0,99
2010,08,01,00,20,-0.46,1,-99999,99,-1.33,01,0,99,0,99
2010,08,01,00,25,-0.44,1,-99999,99,-1.25,01,0,99,0,99
2010,08,01,00,30,-0.28,1,-99999,99,-1.12,01,0,99,0,99
2010,08,01,00,35,0.2,1,-99999,99,-0.66,01,0,99,0,99
2010,08,01,00,40,0.29,1,-99999,99,-0.49,01,0,99,0,99
2010,08,01,00,45,0.36,1,-99999,99,-0.34,01,0,99,0,99
2010,08,01,00,50,0.4,1,-99999,99,-0.24,01,0,99,0,99
2010,08,01,00,55,0.34,1,-99999,99,-0.53,01,0,99,0,99
2010,08,01,01,00,0.37,1,-99999,99,-0.61,01,0,99,0,99
2010,08,01,01,05,0.44,1,-99999,99,-0.35,01,0,99,0,99
2010,08,01,01,10,0.37,1,-99999,99,-0.45,01,0,99,0,99
2010,08,01,01,15,0.41,1,-99999,99,-0.34,01,0,99,0,99
2010,08,01,01,20,0.47,1,-99999,99,-0.23,01,0,99,0,99
2010,08,01,01,25,0.49,1,-99999,99,-0.21,01,0,99,0,99
2010,08,01,01,30,0.4,1,-99999,99,-0.41,01,0,99,0,99
2010,08,01,01,35,0.33,1,-99999,99,-0.75,01,0,99,0,99
2010,08,01,01,40,0.33,1,-99999,99,-0.67,01,0,99,0,99
2010,08,01,01,45,0.41,1,-99999,99,-0.51,01,0,99,0,99
2010,08,01,01,50,0.44,1,-99999,99,-0.47,01,0,99,0,99
2010,08,01,01,55,0.46,1,-99999,99,-0.64,01,0,99,0,99
2010,08,01,02,00,0.44,1,-99999,99,-0.63,01,0,99,0,99
2010,08,01,02,05,0.44,1,-99999,99,-0.67,01,0,99,0,99
2010,08,01,02,10,0.49,1,-99999,99,-0.49,01,0,99,0,99
2010,08,01,02,15,0.39,1,-99999,99,-0.61,01,0,99,0,99
2010,08,01,02,20,0.41,1,-99999,99,-0.69,01,0,99,0,99
2010,08,01,02,25,0.42,1,-99999,99,-0.55,01,0,99,0,99
2010,08,01,02,30,0.42,1,-99999,99,-0.57,01,0,99,0,99
2010,08,01,02,35,0.41,1,-99999,99,-0.63,01,0,99,0,99
2010,08,01,02,40,0.4,1,-99999,99,-0.69,01,0,99,0,99
2010,08,01,02,45,0.44,1,-99999,99,-0.46,01,0,99,0,99
2010,08,01,02,50,0.45,1,-99999,99,-0.34,01,0,99,0,99
2010,08,01,02,55,0.49,1,-99999,99,-0.18,01,0,99,0,99
2010,08,01,03,00,0.49,1,-99999,99,-0.28,01,0,99,0,99
2010,08,01,03,05,0.46,1,-99999,99,-0.57,01,0,99,0,99
2010,08,01,03,10,0.42,1,-99999,99,-0.57,01,0,99,0,99
2010,08,01,03,15,0.46,1,-99999,99,-0.61,01,0,99,0,99
2010,08,01,03,20,0.47,1,-99999,99,-0.38,01,0,99,0,99
2010,08,01,03,25,0.5,1,-99999,99,-0.23,01,0,99,0,99
2010,08,01,03,30,0.52,1,-99999,99,-0.23,01,0,99,0,99
2010,08,01,03,35,0.49,1,-99999,99,-0.12,01,0,99,0,99
2010,08,01,03,40,0.53,1,-99999,99,-0.15,01,0,99,0,99
2010,08,01,03,45,0.49,1,-99999,99,-0.17,01,0,99,0,99
2010,08,01,03,50,0.55,1,-99999,99,-0.03,01,0,99,0,99
2010,08,01,03,55,0.58,1,-99999,99,0,01,0,99,0,99
2010,08,01,04,00,0.62,1,-99999,99,-0.01,01,0,99,0,99
2010,08,01,04,05,0.55,1,-99999,99,-0.03,01,0,99,0,99
2010,08,01,04,10,0.51,1,-99999,99,-0.06,01,0,99,0,99
2010,08,01,04,15,0.53,1,-99999,99,-0.14,01,0,99,0,99
2010,08,01,04,20,0.5,1,-99999,99,-0.2,01,0,99,0,99
2010,08,01,04,25,0.52,1,-99999,99,-0.09,01,0,99,0,99
2010,08,01,04,30,0.56,1,-99999,99,-0.06,01,0,99,0,99
2010,08,01,04,35,0.62,1,-99999,99,-0.07,01,0,99,0,99
2010,08,01,04,40,0.52,1,-99999,99,-0.02,01,0,99,0,99
2010,08,01,04,45,0.63,1,-99999,99,-0.02,01,0,99,0,99
2010,08,01,04,50,0.66,1,-99999,99,-0.01,01,0,99,0,99
2010,08,01,04,55,0.58,1,-99999,99,-0.07,01,0,99,0,99
2010,08,01,05,00,0.46,1,-99999,99,-0.44,01,0,99,0,99
2010,08,01,05,05,0.49,1,-99999,99,-0.14,01,0,99,0,99
2010,08,01,05,10,0.55,1,-99999,99,-0.08,01,0,99,0,99
2010,08,01,05,15,0.61,1,-99999,99,-0.03,01,0,99,0,99
2010,08,01,05,20,0.7,1,-99999,99,0,01,0,99,0,99
2010,08,01,05,25,1.4,1,-99999,99,0.39,01,0,99,0,99
2010,08,01,05,30,1.9,1,-99999,99,1.11,01,0,99,0,99
2010,08,01,05,35,2.74,1,-99999,99,1.93,01,0,99,0,99
2010,08,01,05,40,3.45,1,-99999,99,3.11,01,0,99,0,99
2010,08,01,05,45,3.95,1,-99999,99,3.59,01,0,99,0,99
2010,08,01,05,50,6.61,1,-99999,99,6.09,01,0,99,0,99
2010,08,01,05,55,8.6,1,-99999,99,8.61,01,0,99,0,99
2010,08,01,06,00,11.71,1,-99999,99,11.85,01,0,99,0,99
2010,08,01,06,05,14.67,1,-99999,99,14.53,01,0,99,0,99
2010,08,01,06,10,18.19,1,-99999,99,18.26,01,0,99,0,99
2010,08,01,06,15,18.43,1,-99999,99,18.62,01,0,99,0,99
2010,08,01,06,20,22.85,1,-99999,99,23.05,01,0,99,0,99
2010,08,01,06,25,18.31,1,-99999,99,18.48,01,0,99,0,99
2010,08,01,06,30,20.95,2,-99999,99,21.11,02,0,99,0,99
2010,08,01,06,35,23.7,2,-99999,99,24.23,02,0,99,0,99
2010,08,01,06,40,32.58,2,-99999,99,33.77,02,0,99,0,99
2010,08,01,06,45,29.61,2,-99999,99,30.28,02,0,99,0,99
2010,08,01,06,50,28.37,2,-99999,99,29.06,02,0,99,0,99
2010,08,01,06,55,46.08,2,-99999,99,47.94,02,0,99,0,99
2010,08,01,07,00,28.92,2,-99999,99,29.95,02,0,99,0,99
2010,08,01,07,05,48.6,2,-99999,99,51.23,02,0,99,0,99
2010,08,01,07,10,69.35,2,-99999,99,72.96,02,0,99,0,99
2010,08,01,07,15,74.58,2,-99999,99,78.61,02,0,99,0,99
2010,08,01,07,20,78.7,2,-99999,99,81.81,02,0,99,0,99
2010,08,01,07,25,82.26,2,-99999,99,86.14,02,0,99,0,99
2010,08,01,07,30,89.73,2,-99999,99,94.9,02,0,99,0,99
2010,08,01,07,35,93.68,2,-99999,99,97.68,02,0,99,0,99
2010,08,01,07,40,127.91,2,-99999,99,131.75,02,0,99,0,99
2010,08,01,07,45,103.1,2,-99999,99,107.28,02,0,99,0,99
2010,08,01,07,50,82.95,2,-99999,99,87,02,0,99,0,99
2010,08,01,07,55,97.44,2,-99999,99,102.44,02,0,99,0,99
2010,08,01,08,00,114.64,2,-99999,99,121.12,02,0,99,0,99
2010,08,01,08,05,138.17,2,-99999,99,145.42,02,0,99,0,99
2010,08,01,08,10,134.98,2,-99999,99,142.3,02,0,99,0,99
2010,08,01,08,15,142.67,2,-99999,99,150.55,02,0,99,0,99
2010,08,01,08,20,171.24,2,-99999,99,181.8,02,0,99,0,99
2010,08,01,08,25,192.66,2,-99999,99,201.44,02,0,99,0,99
2010,08,01,08,30,237.78,2,-99999,99,246.45,02,0,99,0,99
2010,08,01,08,35,235.15,2,-99999,99,248.18,02,0,99,0,99
2010,08,01,08,40,227.49,2,-99999,99,239.35,02,0,99,0,99
2010,08,01,08,45,219.54,2,-99999,99,232.89,02,0,99,0,99
2010,08,01,08,50,207.75,2,-99999,99,220.43,02,0,99,0,99
2010,08,01,08,55,203.39,2,-99999,99,218.09,02,0,99,0,99
2010,08,01,09,00,222.76,2,-99999,99,237.39,02,0,99,0,99
2010,08,01,09,05,229.1,2,-99999,99,243.19,02,0,99,0,99
2010,08,01,09,10,190.66,2,-99999,99,203.11,02,0,99,0,99
2010,08,01,09,15,196.29,2,-99999,99,205.36,02,0,99,0,99
2010,08,01,09,20,182.18,2,-99999,99,189.28,02,0,99,0,99
2010,08,01,09,25,207.39,2,-99999,99,218.23,02,0,99,0,99
2010,08,01,09,30,292.01,2,-99999,99,313.47,02,0,99,0,99
2010,08,01,09,35,363.61,2,-99999,99,375.74,02,0,99,0,99
2010,08,01,09,40,338.01,2,-99999,99,351.59,02,0,99,0,99
2010,08,01,09,45,356.97,2,-99999,99,379.32,02,0,99,0,99
2010,08,01,09,50,347.24,2,-99999,99,370.7,02,0,99,0,99
2010,08,01,09,55,285.71,2,-99999,99,302.09,02,0,99,0,99
2010,08,01,10,00,364.07,2,-99999,99,370.26,02,0,99,0,99
2010,08,01,10,05,390.93,2,-99999,99,408.91,02,0,99,0,99
2010,08,01,10,10,399.98,2,-99999,99,409.25,02,0,99,0,99
2010,08,01,10,15,343.97,2,-99999,99,367.43,02,0,99,0,99
2010,08,01,10,20,352.05,2,-99999,99,371.63,02,0,99,0,99
2010,08,01,10,25,501.45,2,-99999,99,527.51,02,0,99,0,99
2010,08,01,10,30,385.57,2,-99999,99,410.5,02,0,99,0,99
2010,08,01,10,35,350.36,13,-99999,99,375.72,12,0,99,0,99
2010,08,01,10,40,348.54,2,-99999,99,365.6,02,0,99,0,99
2010,08,01,10,45,311.36,2,-99999,99,333.49,02,0,99,0,99
2010,08,01,10,50,325.35,2,-99999,99,349.33,02,0,99,0,99
2010,08,01,10,55,342.98,2,-99999,99,367.97,02,0,99,0,99
2010,08,01,11,00,339.83,2,-99999,99,362.48,02,0,99,0,99
2010,08,01,11,05,384.35,13,-99999,99,420.07,12,0,99,0,99
2010,08,01,11,10,495.05,2,-99999,99,511.83,02,0,99,0,99
2010,08,01,11,15,535.32,2,-99999,99,552.89,02,0,99,0,99
2010,08,01,11,20,567.88,13,-99999,99,603.6,12,0,99,0,99
2010,08,01,11,25,547.24,13,-99999,99,581.42,12,0,99,0,99
2010,08,01,11,30,571.15,2,-99999,99,592.41,02,0,99,0,99
2010,08,01,11,35,698.07,37,-99999,99,762.57,36,0,99,0,99
2010,08,01,11,40,930.71,1,-99999,99,1089.83,08,0,99,0,99
2010,08,01,11,45,925.7,1,-99999,99,1094.38,08,0,99,0,99
2010,08,01,11,50,928.59,1,-99999,99,1077.68,08,0,99,0,99
2010,08,01,11,55,898.03,1,-99999,99,976.1,08,0,99,0,99
2010,08,01,12,00,895.83,1,-99999,99,925.82,08,0,99,0,99
2010,08,01,12,05,920.88,1,-99999,99,930.15,08,0,99,0,99
2010,08,01,12,10,932.51,1,-99999,99,864.06,08,0,99,0,99
2010,08,01,12,15,930.66,29,-99999,99,797.03,28,0,99,0,99
2010,08,01,12,20,941.06,17,-99999,99,728.12,16,0,99,0,99
2010,08,01,12,25,913.89,2,-99999,99,611.02,02,0,99,0,99
2010,08,01,12,30,924.24,2,-99999,99,517.86,02,0,99,0,99
2010,08,01,12,35,914.92,2,-99999,99,446.09,02,0,99,0,99
2010,08,01,12,40,924.54,2,-99999,99,390.65,02,0,99,0,99
2010,08,01,12,45,943.03,2,-99999,99,337.08,02,0,99,0,99
2010,08,01,12,50,958.11,2,-99999,99,329.79,02,0,99,0,99
2010,08,01,12,55,1022.9,2,-99999,99,389.18,02,0,99,0,99
2010,08,01,13,00,1057.1,2,-99999,99,351.96,02,0,99,0,99
2010,08,01,13,05,1009.3,2,-99999,99,308.11,02,0,99,0,99
2010,08,01,13,10,967.68,2,-99999,99,383.65,02,0,99,0,99
2010,08,01,13,15,624.55,2,-99999,99,422.24,02,0,99,0,99
2010,08,01,13,20,908.47,2,-99999,99,327.38,02,0,99,0,99
2010,08,01,13,25,862.47,2,-99999,99,268.67,02,0,99,0,99
2010,08,01,13,30,944.04,2,-99999,99,277.18,02,0,99,0,99
2010,08,01,13,35,926.49,2,-99999,99,218.18,02,0,99,0,99
2010,08,01,13,40,915.45,2,-99999,99,218.1,02,0,99,0,99
2010,08,01,13,45,929.15,2,-99999,99,233.38,02,0,99,0,99
2010,08,01,13,50,985.95,2,-99999,99,326.78,02,0,99,0,99
2010,08,01,13,55,975.76,2,-99999,99,369.39,02,0,99,0,99
2010,08,01,14,00,971.27,2,-99999,99,316.82,02,0,99,0,99
2010,08,01,14,05,909.87,2,-99999,99,279.48,02,0,99,0,99
2010,08,01,14,10,966.61,2,-99999,99,331.03,02,0,99,0,99
2010,08,01,14,15,787.85,2,-99999,99,323.68,02,0,99,0,99
2010,08,01,14,20,752.84,2,-99999,99,253.68,02,0,99,0,99
2010,08,01,14,25,685.89,2,-99999,99,298.01,02,0,99,0,99
2010,08,01,14,30,742.24,2,-99999,99,336.4,02,0,99,0,99
2010,08,01,14,35,468.91,2,-99999,99,334.32,02,0,99,0,99
2010,08,01,14,40,573.8,2,-99999,99,268.66,02,0,99,0,99
2010,08,01,14,45,792.14,2,-99999,99,196.59,02,0,99,0,99
2010,08,01,14,50,798.38,2,-99999,99,235.52,02,0,99,0,99
2010,08,01,14,55,818.13,2,-99999,99,254.76,02,0,99,0,99
2010,08,01,15,00,772.97,2,-99999,99,210.53,02,0,99,0,99
2010,08,01,15,05,758.13,2,-99999,99,198.2,02,0,99,0,99
2010,08,01,15,10,751.55,2,-99999,99,210.04,02,0,99,0,99
2010,08,01,15,15,737.97,2,-99999,99,204.42,02,0,99,0,99
2010,08,01,15,20,688.13,2,-99999,99,177.92,02,0,99,0,99
2010,08,01,15,25,678.86,2,-99999,99,168.45,02,0,99,0,99
2010,08,01,15,30,668.41,2,-99999,99,172.26,02,0,99,0,99
2010,08,01,15,35,659.42,2,-99999,99,161.94,02,0,99,0,99
2010,08,01,15,40,646.8,2,-99999,99,165.72,02,0,99,0,99
2010,08,01,15,45,637.3,2,-99999,99,174.98,02,0,99,0,99
2010,08,01,15,50,627.95,2,-99999,99,176.51,02,0,99,0,99
2010,08,01,15,55,627.18,2,-99999,99,199.77,02,0,99,0,99
2010,08,01,16,00,604.31,2,-99999,99,180.93,02,0,99,0,99
2010,08,01,16,05,584,2,-99999,99,171.91,02,0,99,0,99
2010,08,01,16,10,477.87,2,-99999,99,264.52,02,0,99,0,99
2010,08,01,16,15,491.17,2,-99999,99,230.95,02,0,99,0,99
2010,08,01,16,20,572.81,2,-99999,99,232.28,02,0,99,0,99
2010,08,01,16,25,569.6,2,-99999,99,239.93,02,0,99,0,99
2010,08,01,16,30,307.72,2,-99999,99,225.93,02,0,99,0,99
2010,08,01,16,35,227.6,2,-99999,99,231.63,02,0,99,0,99
2010,08,01,16,40,276.7,2,-99999,99,246.55,02,0,99,0,99
2010,08,01,16,45,402.96,2,-99999,99,304.21,02,0,99,0,99
2010,08,01,16,50,540.53,2,-99999,99,306.55,02,0,99,0,99
2010,08,01,16,55,374.24,2,-99999,99,255.89,02,0,99,0,99
2010,08,01,17,00,110.14,2,-99999,99,117.83,02,0,99,0,99
2010,08,01,17,05,85.16,2,-99999,99,91.29,02,0,99,0,99
2010,08,01,17,10,316.22,2,-99999,99,316.92,02,0,99,0,99
2010,08,01,17,15,413.91,2,-99999,99,330.4,02,0,99,0,99
2010,08,01,17,20,434.8,2,-99999,99,294.51,02,0,99,0,99
2010,08,01,17,25,312.84,2,-99999,99,241.97,02,0,99,0,99
2010,08,01,17,30,228.62,2,-99999,99,200.26,02,0,99,0,99
2010,08,01,17,35,316.95,2,-99999,99,218.51,02,0,99,0,99
2010,08,01,17,40,250.53,2,-99999,99,182.43,02,0,99,0,99
2010,08,01,17,45,142.18,2,-99999,99,131.38,02,0,99,0,99
2010,08,01,17,50,159.07,2,-99999,99,108.02,02,0,99,0,99
2010,08,01,17,55,226,2,-99999,99,143.71,02,0,99,0,99
2010,08,01,18,00,196.41,2,-99999,99,164.65,02,0,99,0,99
2010,08,01,18,05,229.98,2,-99999,99,171.38,02,0,99,0,99
2010,08,01,18,10,206.97,2,-99999,99,161.27,02,0,99,0,99
2010,08,01,18,15,207.41,2,-99999,99,142.74,02,0,99,0,99
2010,08,01,18,20,159.86,2,-99999,99,96.79,02,0,99,0,99
2010,08,01,18,25,132.45,2,-99999,99,77.75,02,0,99,0,99
2010,08,01,18,30,111.23,2,-99999,99,67.01,02,0,99,0,99
2010,08,01,18,35,93.89,2,-99999,99,64.47,02,0,99,0,99
2010,08,01,18,40,70.53,1,-99999,99,59.43,01,0,99,0,99
2010,08,01,18,45,58.02,1,-99999,99,61.49,01,0,99,0,99
2010,08,01,18,50,37.59,1,-99999,99,39.49,01,0,99,0,99
2010,08,01,18,55,38.7,1,-99999,99,39.94,01,0,99,0,99
2010,08,01,19,00,24.13,1,-99999,99,25.23,01,0,99,0,99
2010,08,01,19,05,19.62,1,-99999,99,20.11,01,0,99,0,99
2010,08,01,19,10,19.61,1,-99999,99,19.72,01,0,99,0,99
2010,08,01,19,15,11.44,1,-99999,99,11.66,01,0,99,0,99
2010,08,01,19,20,4.42,1,-99999,99,4.32,01,0,99,0,99
2010,08,01,19,25,5.52,1,-99999,99,5.01,01,0,99,0,99
2010,08,01,19,30,3.05,1,-99999,99,2.73,01,0,99,0,99
2010,08,01,19,35,0.82,1,-99999,99,0.37,08,0,99,0,99
2010,08,01,19,40,-1.07,1,-99999,99,-1.68,01,0,99,0,99
2010,08,01,19,45,-2.19,1,-99999,99,-3.03,01,0,99,0,99
2010,08,01,19,50,-2.25,1,-99999,99,-3.24,01,0,99,0,99
2010,08,01,19,55,-1.97,1,-99999,99,-2.81,01,0,99,0,99
2010,08,01,20,00,-1.35,1,-99999,99,-2.01,01,0,99,0,99
2010,08,01,20,05,-0.86,1,-99999,99,-1.44,01,0,99,0,99
2010,08,01,20,10,-0.42,1,-99999,99,-1.16,01,0,99,0,99
2010,08,01,20,15,-0.36,1,-99999,99,-1.05,01,0,99,0,99
2010,08,01,20,20,-0.35,1,-99999,99,-1.08,01,0,99,0,99
2010,08,01,20,25,-0.35,1,-99999,99,-1.07,01,0,99,0,99
2010,08,01,20,30,-0.32,1,-99999,99,-1,01,0,99,0,99
2010,08,01,20,35,-0.32,1,-99999,99,-1,01,0,99,0,99
2010,08,01,20,40,-0.28,1,-99999,99,-0.98,01,0,99,0,99
2010,08,01,20,45,-0.34,1,-99999,99,-1.05,01,0,99,0,99
2010,08,01,20,50,-0.42,1,-99999,99,-1.09,01,0,99,0,99
2010,08,01,20,55,-0.36,1,-99999,99,-1.08,01,0,99,0,99
2010,08,01,21,00,-0.38,1,-99999,99,-1.11,01,0,99,0,99
2010,08,01,21,05,-0.36,1,-99999,99,-1.11,01,0,99,0,99
2010,08,01,21,10,-0.36,1,-99999,99,-1.1,01,0,99,0,99
2010,08,01,21,15,-0.39,1,-99999,99,-1.08,01,0,99,0,99
2010,08,01,21,20,-0.46,1,-99999,99,-1.16,01,0,99,0,99
2010,08,01,21,25,-0.42,1,-99999,99,-1.12,01,0,99,0,99
2010,08,01,21,30,-0.38,1,-99999,99,-1.11,01,0,99,0,99
2010,08,01,21,35,-0.39,1,-99999,99,-1.13,01,0,99,0,99
2010,08,01,21,40,-0.38,1,-99999,99,-1.11,01,0,99,0,99
2010,08,01,21,45,-0.33,1,-99999,99,-1.03,01,0,99,0,99
2010,08,01,21,50,-0.26,1,-99999,99,-1.01,01,0,99,0,99
2010,08,01,21,55,-0.25,1,-99999,99,-0.92,01,0,99,0,99
2010,08,01,22,00,-0.32,1,-99999,99,-1,01,0,99,0,99
2010,08,01,22,05,-0.33,1,-99999,99,-1.03,01,0,99,0,99
2010,08,01,22,10,-0.33,1,-99999,99,-1.05,01,0,99,0,99
2010,08,01,22,15,-0.36,1,-99999,99,-1.07,01,0,99,0,99
2010,08,01,22,20,-0.29,1,-99999,99,-1.01,01,0,99,0,99
2010,08,01,22,25,-0.18,1,-99999,99,-0.76,01,0,99,0,99
2010,08,01,22,30,-0.21,1,-99999,99,-0.77,01,0,99,0,99
2010,08,01,22,35,-0.23,1,-99999,99,-0.87,01,0,99,0,99
2010,08,01,22,40,-0.19,1,-99999,99,-0.79,01,0,99,0,99
2010,08,01,22,45,-0.22,1,-99999,99,-0.8,01,0,99,0,99
2010,08,01,22,50,-0.1,1,-99999,99,-0.69,01,0,99,0,99
2010,08,01,22,55,-0.16,1,-99999,99,-0.68,01,0,99,0,99
2010,08,01,23,00,-0.19,1,-99999,99,-0.85,01,0,99,0,99
2010,08,01,23,05,-0.25,1,-99999,99,-0.85,01,0,99,0,99
2010,08,01,23,10,-0.08,1,-99999,99,-0.64,01,0,99,0,99
2010,08,01,23,15,-0.1,1,-99999,99,-0.58,01,0,99,0,99
2010,08,01,23,20,-0.07,1,-99999,99,-0.54,01,0,99,0,99
2010,08,01,23,25,-0.28,1,-99999,99,-0.93,01,0,99,0,99
2010,08,01,23,30,-0.35,1,-99999,99,-1.04,01,0,99,0,99
2010,08,01,23,35,-0.34,1,-99999,99,-1.09,01,0,99,0,99
2010,08,01,23,40,-0.33,1,-99999,99,-1.02,01,0,99,0,99
2010,08,01,23,45,-0.34,1,-99999,99,-1.09,01,0,99,0,99
2010,08,01,23,50,-0.29,1,-99999,99,-0.97,01,0,99,0,99
2010,08,01,23,55,-0.25,1,-99999,99,-0.96,01,0,99,0,99
2010,08,02,00,00,-0.27,1,-99999,99,-0.95,01,0,99,0,99
2010,08,02,00,05,-0.18,1,-99999,99,-0.8,01,0,99,0,99
2010,08,02,00,10,-0.12,1,-99999,99,-0.7,01,0,99,0,99
2010,08,02,00,15,-0.18,1,-99999,99,-0.76,01,0,99,0,99
2010,08,02,00,20,-0.15,1,-99999,99,-0.73,01,0,99,0,99
2010,08,02,00,25,-0.12,1,-99999,99,-0.7,01,0,99,0,99
2010,08,02,00,30,-0.12,1,-99999,99,-0.7,01,0,99,0,99
2010,08,02,00,35,-0.16,1,-99999,99,-0.66,01,0,99,0,99
2010,08,02,00,40,-0.14,1,-99999,99,-0.71,01,0,99,0,99
2010,08,02,00,45,-0.14,1,-99999,99,-0.77,01,0,99,0,99
2010,08,02,00,50,-0.06,1,-99999,99,-0.59,01,0,99,0,99
2010,08,02,00,55,-0.15,1,-99999,99,-0.62,01,0,99,0,99
2010,08,02,01,00,-0.19,1,-99999,99,-0.86,01,0,99,0,99
2010,08,02,01,05,-0.27,1,-99999,99,-0.9,01,0,99,0,99
2010,08,02,01,10,-0.25,1,-99999,99,-0.81,01,0,99,0,99
2010,08,02,01,15,-0.06,1,-99999,99,-0.54,01,0,99,0,99
2010,08,02,01,20,0.01,1,-99999,99,-0.5,01,0,99,0,99
2010,08,02,01,25,0.04,1,-99999,99,-0.38,01,0,99,0,99
2010,08,02,01,30,-0.09,1,-99999,99,-0.58,01,0,99,0,99
2010,08,02,01,35,-0.05,1,-99999,99,-0.49,01,0,99,0,99
2010,08,02,01,40,-0.13,1,-99999,99,-0.67,01,0,99,0,99
2010,08,02,01,45,-0.24,1,-99999,99,-0.8,01,0,99,0,99
2010,08,02,01,50,-0.41,1,-99999,99,-1.13,01,0,99,0,99
2010,08,02,01,55,-0.48,1,-99999,99,-1.12,01,0,99,0,99
2010,08,02,02,00,-0.43,1,-99999,99,-1.1,01,0,99,0,99
2010,08,02,02,05,-0.56,1,-99999,99,-1.16,01,0,99,0,99
2010,08,02,02,10,-0.78,1,-99999,99,-1.32,01,0,99,0,99
2010,08,02,02,15,-0.96,1,-99999,99,-1.48,01,0,99,0,99
2010,08,02,02,20,-0.65,1,-99999,99,-1.22,01,0,99,0,99
2010,08,02,02,25,-0.66,1,-99999,99,-1.2,01,0,99,0,99
2010,08,02,02,30,-0.62,1,-99999,99,-1.16,01,0,99,0,99
2010,08,02,02,35,-1.36,1,-99999,99,-1.74,01,0,99,0,99
2010,08,02,02,40,-1.92,1,-99999,99,-2.37,01,0,99,0,99
2010,08,02,02,45,-2,1,-99999,99,-2.54,01,0,99,0,99
2010,08,02,02,50,-1.92,1,-99999,99,-2.34,01,0,99,0,99
2010,08,02,02,55,-2.16,1,-99999,99,-2.81,01,0,99,0,99
2010,08,02,03,00,-1.75,1,-99999,99,-2.26,01,0,99,0,99
2010,08,02,03,05,-1.42,1,-99999,99,-1.97,01,0,99,0,99
2010,08,02,03,10,-0.75,1,-99999,99,-1.22,01,0,99,0,99
2010,08,02,03,15,-0.58,1,-99999,99,-1.16,01,0,99,0,99
2010,08,02,03,20,-1,1,-99999,99,-1.4,01,0,99,0,99
2010,08,02,03,25,-0.95,1,-99999,99,-1.32,01,0,99,0,99
2010,08,02,03,30,-1.67,1,-99999,99,-2.07,01,0,99,0,99
2010,08,02,03,35,-1.23,1,-99999,99,-1.71,01,0,99,0,99
2010,08,02,03,40,-1.29,1,-99999,99,-1.7,01,0,99,0,99
2010,08,02,03,45,-1.43,1,-99999,99,-1.94,01,0,99,0,99
2010,08,02,03,50,-1.57,1,-99999,99,-2.18,01,0,99,0,99
2010,08,02,03,55,-1.35,1,-99999,99,-1.91,01,0,99,0,99
2010,08,02,04,00,-1.34,1,-99999,99,-1.82,01,0,99,0,99
2010,08,02,04,05,-1.1,1,-99999,99,-1.5,01,0,99,0,99
2010,08,02,04,10,-0.87,1,-99999,99,-1.36,01,0,99,0,99
2010,08,02,04,15,-1.08,1,-99999,99,-1.53,01,0,99,0,99
2010,08,02,04,20,-1.79,1,-99999,99,-2.19,01,0,99,0,99
2010,08,02,04,25,-2.38,1,-99999,99,-3.07,01,0,99,0,99
2010,08,02,04,30,-2.55,1,-99999,99,-3.32,01,0,99,0,99
2010,08,02,04,35,-2.25,1,-99999,99,-3.12,01,0,99,0,99
2010,08,02,04,40,-2.25,1,-99999,99,-2.84,01,0,99,0,99
2010,08,02,04,45,-2.15,1,-99999,99,-2.65,01,0,99,0,99
2010,08,02,04,50,-2.52,1,-99999,99,-3.27,01,0,99,0,99
2010,08,02,04,55,-2.48,1,-99999,99,-3.22,01,0,99,0,99
2010,08,02,05,00,-2.76,1,-99999,99,-3.38,01,0,99,0,99
2010,08,02,05,05,-2.46,1,-99999,99,-3.35,01,0,99,0,99
2010,08,02,05,10,-2.68,1,-99999,99,-3.38,01,0,99,0,99
2010,08,02,05,15,-2.68,1,-99999,99,-3.44,01,0,99,0,99
2010,08,02,05,20,-2.01,1,-99999,99,-2.61,01,0,99,0,99
2010,08,02,05,25,-0.96,1,-99999,99,-1.45,01,0,99,0,99
2010,08,02,05,30,0.22,1,-99999,99,-0.11,01,0,99,0,99
2010,08,02,05,35,1.9,1,-99999,99,1.63,01,0,99,0,99
2010,08,02,05,40,4.28,1,-99999,99,4.17,01,0,99,0,99
2010,08,02,05,45,6.63,1,-99999,99,6.9,01,0,99,0,99
2010,08,02,05,50,10.72,1,-99999,99,11.7,01,0,99,0,99
2010,08,02,05,55,14.05,1,-99999,99,14.6,01,0,99,0,99
2010,08,02,06,00,20.91,1,-99999,99,21.59,01,0,99,0,99
2010,08,02,06,05,27.2,1,-99999,99,28.24,01,0,99,0,99
2010,08,02,06,10,36.03,1,-99999,99,37.23,01,0,99,0,99
2010,08,02,06,15,43.62,1,-99999,99,44.86,01,0,99,0,99
2010,08,02,06,20,55.04,1,-99999,99,53.75,01,0,99,0,99
2010,08,02,06,25,57.73,1,-99999,99,58.99,01,0,99,0,99
2010,08,02,06,30,62.34,1,-99999,99,63.83,01,0,99,0,99
2010,08,02,06,35,72.19,2,-99999,99,74.42,02,0,99,0,99
2010,08,02,06,40,83.34,2,-99999,99,87.39,02,0,99,0,99
2010,08,02,06,45,89.26,2,-99999,99,94.01,02,0,99,0,99
2010,08,02,06,50,110.41,2,-99999,99,114.82,02,0,99,0,99
2010,08,02,06,55,119.22,2,-99999,99,125.18,02,0,99,0,99
2010,08,02,07,00,115.27,2,-99999,99,117.49,02,0,99,0,99
2010,08,02,07,05,109.58,2,-99999,99,113.09,02,0,99,0,99
2010,08,02,07,10,122,2,-99999,99,124.22,02,0,99,0,99
2010,08,02,07,15,145.05,2,-99999,99,149.95,02,0,99,0,99
2010,08,02,07,20,150.9,2,-99999,99,154.75,02,0,99,0,99
2010,08,02,07,25,172.51,2,-99999,99,180.24,02,0,99,0,99
2010,08,02,07,30,180.25,2,-99999,99,187.99,02,0,99,0,99
2010,08,02,07,35,154.04,2,-99999,99,161.54,02,0,99,0,99
2010,08,02,07,40,179.38,2,-99999,99,186.58,02,0,99,0,99
2010,08,02,07,45,178.79,2,-99999,99,190.54,02,0,99,0,99
2010,08,02,07,50,166.32,2,-99999,99,175.25,02,0,99,0,99
2010,08,02,07,55,200.63,2,-99999,99,211.99,02,0,99,0,99
2010,08,02,08,00,207.38,2,-99999,99,218.41,02,0,99,0,99
2010,08,02,08,05,229.03,2,-99999,99,240.93,02,0,99,0,99
2010,08,02,08,10,212.57,2,-99999,99,223.97,02,0,99,0,99
2010,08,02,08,15,215.17,2,-99999,99,226.88,02,0,99,0,99
2010,08,02,08,20,196.41,2,-99999,99,207.82,02,0,99,0,99
2010,08,02,08,25,187.92,2,-99999,99,199.67,02,0,99,0,99
2010,08,02,08,30,178.21,2,-99999,99,188.93,02,0,99,0,99
2010,08,02,08,35,157.65,2,-99999,99,168.23,02,0,99,0,99
2010,08,02,08,40,155.34,2,-99999,99,165.27,02,0,99,0,99
2010,08,02,08,45,206.32,2,-99999,99,220.89,02,0,99,0,99
2010,08,02,08,50,266.44,2,-99999,99,283.11,02,0,99,0,99
2010,08,02,08,55,242.66,2,-99999,99,256.72,02,0,99,0,99
2010,08,02,09,00,261.44,2,-99999,99,278.91,02,0,99,0,99
2010,08,02,09,05,324.06,2,-99999,99,344.85,02,0,99,0,99
2010,08,02,09,10,313.39,2,-99999,99,333.72,02,0,99,0,99
2010,08,02,09,15,273.85,2,-99999,99,290.16,02,0,99,0,99
2010,08,02,09,20,259.82,2,-99999,99,278.3,02,0,99,0,99
2010,08,02,09,25,289.45,2,-99999,99,305.58,02,0,99,0,99
2010,08,02,09,30,257.72,2,-99999,99,273.97,02,0,99,0,99
2010,08,02,09,35,242.08,2,-99999,99,258.98,02,0,99,0,99
2010,08,02,09,40,279.47,2,-99999,99,297.49,02,0,99,0,99
2010,08,02,09,45,266.36,2,-99999,99,284.87,02,0,99,0,99
2010,08,02,09,50,358.04,2,-99999,99,382.16,02,0,99,0,99
2010,08,02,09,55,384.81,2,-99999,99,410.88,02,0,99,0,99
2010,08,02,10,00,448.56,13,-99999,99,477.18,12,0,99,0,99
2010,08,02,10,05,546.88,25,-99999,99,584.33,24,0,99,0,99
2010,08,02,10,10,543.03,21,-99999,99,577.59,20,0,99,0,99
2010,08,02,10,15,511.98,2,-99999,99,532.96,02,0,99,0,99
2010,08,02,10,20,458.42,2,-99999,99,481.13,02,0,99,0,99
2010,08,02,10,25,522.15,2,-99999,99,549.72,02,0,99,0,99
2010,08,02,10,30,457.3,2,-99999,99,481.33,02,0,99,0,99
2010,08,02,10,35,453.08,2,-99999,99,477.29,02,0,99,0,99
2010,08,02,10,40,458.33,2,-99999,99,481.5,02,0,99,0,99
2010,08,02,10,45,480.52,2,-99999,99,506.24,02,0,99,0,99
2010,08,02,10,50,478.46,2,-99999,99,497.65,02,0,99,0,99
2010,08,02,10,55,493.41,2,-99999,99,513.56,02,0,99,0,99
2010,08,02,11,00,499.55,2,-99999,99,523.05,02,0,99,0,99
2010,08,02,11,05,425.37,13,-99999,99,455.71,12,0,99,0,99
2010,08,02,11,10,524.64,2,-99999,99,547.94,02,0,99,0,99
2010,08,02,11,15,470.12,13,-99999,99,496.89,12,0,99,0,99
2010,08,02,11,20,607.81,17,-99999,99,648.94,16,0,99,0,99
2010,08,02,11,25,460.91,2,-99999,99,485.18,02,0,99,0,99
2010,08,02,11,30,517.64,2,-99999,99,545.19,02,0,99,0,99
2010,08,02,11,35,594.03,13,-99999,99,622.68,12,0,99,0,99
2010,08,02,11,40,692.65,37,-99999,99,768.73,36,0,99,0,99
2010,08,02,11,45,921.96,1,-99999,99,1053.46,08,0,99,0,99
2010,08,02,11,50,854.28,1,-99999,99,956.53,08,0,99,0,99
2010,08,02,11,55,926.74,1,-99999,99,1044.12,08,0,99,0,99
2010,08,02,12,00,856.76,1,-99999,99,918.9,08,0,99,0,99
2010,08,02,12,05,539.69,2,-99999,99,554.13,02,0,99,0,99
2010,08,02,12,10,640.44,13,-99999,99,656.36,12,0,99,0,99
2010,08,02,12,15,592.41,2,-99999,99,603.19,02,0,99,0,99
2010,08,02,12,20,855.87,1,-99999,99,847.74,08,0,99,0,99
2010,08,02,12,25,1058,1,-99999,99,1003.35,08,0,99,0,99
2010,08,02,12,30,1005,1,-99999,99,900.35,08,0,99,0,99
2010,08,02,12,35,978.76,1,-99999,99,852.34,08,0,99,0,99
2010,08,02,12,40,588.58,2,-99999,99,603.22,02,0,99,0,99